date,time,SUV Intensity [MED/Hr],UV Index,Daily total [MED],Since Last [MED]
29/06/2023,23:58:23,0.001,0.0,10.932,10.932
29/06/2023,23:59:23,0.002,0.0,10.932,0.0
30/06/2023,00:00:22,-0.001,0.0,0.0,-10.932
30/06/2023,00:01:23,-0.001,0.0,0.0,0.0
30/06/2023,00:02:23,0.001,0.0,0.0,0.0
30/06/2023,00:03:22,0.001,0.0,0.0,0.0
30/06/2023,00:04:23,-0.001,0.0,0.0,0.0
30/06/2023,00:05:23,0.000,0.0,0.0,0.0
30/06/2023,00:06:22,0.001,0.0,0.0,0.0
30/06/2023,00:07:23,0.000,0.0,0.0,0.0
30/06/2023,00:08:23,0.000,0.0,0.0,0.0
30/06/2023,00:09:22,-0.000,0.0,0.0,0.0
30/06/2023,00:10:23,0.000,0.0,0.0,0.0
30/06/2023,00:11:23,0.001,0.0,0.0,0.0
30/06/2023,00:12:22,-0.001,0.0,0.0,0.0
30/06/2023,00:13:23,0.000,0.0,0.0,0.0
30/06/2023,00:14:23,0.000,0.0,0.0,0.0
30/06/2023,00:15:22,-0.001,0.0,0.0,0.0
30/06/2023,00:16:23,-0.001,0.0,0.0,0.0
30/06/2023,00:17:23,0.000,0.0,0.0,0.0
30/06/2023,00:18:22,0.000,0.0,0.0,0.0
30/06/2023,00:19:22,0.000,0.0,0.0,0.0
30/06/2023,00:20:23,-0.001,0.0,0.0,0.0
30/06/2023,00:21:23,0.000,0.0,0.0,0.0
30/06/2023,00:22:22,-0.001,0.0,0.0,0.0
30/06/2023,00:23:23,0.001,0.0,0.0,0.0
30/06/2023,00:24:23,0.001,0.0,0.0,0.0
30/06/2023,00:25:23,0.000,0.0,0.0,0.0
30/06/2023,00:26:23,-0.001,0.0,0.0,0.0
30/06/2023,00:27:22,-0.000,0.0,0.0,0.0
30/06/2023,00:28:22,0.000,0.0,0.0,0.0
30/06/2023,00:29:22,0.000,0.0,0.0,0.0
30/06/2023,00:30:23,0.001,0.0,0.0,0.0
30/06/2023,00:31:22,0.001,0.0,0.0,0.0
30/06/2023,00:32:22,0.001,0.0,0.0,0.0
30/06/2023,00:33:23,0.000,0.0,0.0,0.0
30/06/2023,00:34:22,0.001,0.0,0.0,0.0
30/06/2023,00:35:23,-0.000,0.0,0.0,0.0
30/06/2023,00:36:24,-0.001,0.0,0.0,0.0
30/06/2023,00:37:23,0.000,0.0,0.0,0.0
30/06/2023,00:38:23,0.001,0.0,0.0,0.0
30/06/2023,00:39:23,0.001,0.0,0.0,0.0
30/06/2023,00:40:22,0.002,0.0,0.0,0.0
30/06/2023,00:41:23,-0.000,0.0,0.0,0.0
30/06/2023,00:42:22,0.000,0.0,0.0,0.0
30/06/2023,00:43:23,0.001,0.0,0.0,0.0
30/06/2023,00:44:22,0.000,0.0,0.0,0.0
30/06/2023,00:45:22,0.001,0.0,0.0,0.0
30/06/2023,00:46:23,0.000,0.0,0.0,0.0
30/06/2023,00:47:23,-0.000,0.0,0.0,0.0
30/06/2023,00:48:22,-0.000,0.0,0.0,0.0
30/06/2023,00:49:23,0.001,0.0,0.0,0.0
30/06/2023,00:50:23,0.001,0.0,0.0,0.0
30/06/2023,00:51:22,0.001,0.0,0.0,0.0
30/06/2023,00:52:22,0.000,0.0,0.0,0.0
30/06/2023,00:53:22,0.001,0.0,0.0,0.0
30/06/2023,00:54:22,0.001,0.0,0.0,0.0
30/06/2023,00:55:23,0.001,0.0,0.0,0.0
30/06/2023,00:56:23,0.001,0.0,0.0,0.0
30/06/2023,00:57:22,-0.001,0.0,0.0,0.0
30/06/2023,00:58:23,0.001,0.0,0.0,0.0
30/06/2023,00:59:22,0.000,0.0,0.0,0.0
30/06/2023,01:00:23,0.001,0.0,0.0,0.0
30/06/2023,01:01:23,0.001,0.0,0.0,0.0
30/06/2023,01:02:22,0.001,0.0,0.0,0.0
30/06/2023,01:03:23,0.001,0.0,0.0,0.0
30/06/2023,01:04:22,0.001,0.0,0.0,0.0
30/06/2023,01:05:22,0.000,0.0,0.0,0.0
30/06/2023,01:06:23,0.001,0.0,0.0,0.0
30/06/2023,01:07:23,0.001,0.0,0.0,0.0
30/06/2023,01:08:22,0.001,0.0,0.0,0.0
30/06/2023,01:09:22,0.000,0.0,0.0,0.0
30/06/2023,01:10:22,0.002,0.0,0.0,0.0
30/06/2023,01:11:23,0.001,0.0,0.0,0.0
30/06/2023,01:12:23,0.001,0.0,0.0,0.0
30/06/2023,01:13:23,0.001,0.0,0.0,0.0
30/06/2023,01:14:22,-0.000,0.0,0.0,0.0
30/06/2023,01:15:23,0.000,0.0,0.0,0.0
30/06/2023,01:16:22,0.001,0.0,0.0,0.0
30/06/2023,01:17:22,0.001,0.0,0.0,0.0
30/06/2023,01:18:23,0.000,0.0,0.0,0.0
30/06/2023,01:19:23,-0.000,0.0,0.0,0.0
30/06/2023,01:20:22,-0.000,0.0,0.0,0.0
30/06/2023,01:21:23,0.001,0.0,0.0,0.0
30/06/2023,01:22:23,0.001,0.0,0.0,0.0
30/06/2023,01:23:23,0.001,0.0,0.0,0.0
30/06/2023,01:24:22,0.000,0.0,0.0,0.0
30/06/2023,01:25:22,0.002,0.0,0.0,0.0
30/06/2023,01:26:22,0.001,0.0,0.0,0.0
30/06/2023,01:27:23,0.000,0.0,0.0,0.0
30/06/2023,01:28:22,0.001,0.0,0.0,0.0
30/06/2023,01:29:23,0.001,0.0,0.0,0.0
30/06/2023,01:30:22,0.002,0.0,0.0,0.0
30/06/2023,01:31:23,0.001,0.0,0.0,0.0
30/06/2023,01:32:23,0.000,0.0,0.0,0.0
30/06/2023,01:33:23,0.000,0.0,0.0,0.0
30/06/2023,01:34:22,-0.000,0.0,0.0,0.0
30/06/2023,01:35:22,0.001,0.0,0.0,0.0
30/06/2023,01:36:23,-0.000,0.0,0.0,0.0
30/06/2023,01:37:23,0.001,0.0,0.0,0.0
30/06/2023,01:38:23,0.000,0.0,0.0,0.0
30/06/2023,01:39:22,0.001,0.0,0.0,0.0
30/06/2023,01:40:23,0.001,0.0,0.0,0.0
30/06/2023,01:41:23,0.001,0.0,0.0,0.0
30/06/2023,01:42:23,0.001,0.0,0.0,0.0
30/06/2023,01:43:22,0.001,0.0,0.0,0.0
30/06/2023,01:44:23,0.001,0.0,0.0,0.0
30/06/2023,01:45:23,0.001,0.0,0.0,0.0
30/06/2023,01:46:22,0.001,0.0,0.0,0.0
30/06/2023,01:47:23,0.002,0.0,0.0,0.0
30/06/2023,01:48:22,0.001,0.0,0.0,0.0
30/06/2023,01:49:23,0.000,0.0,0.0,0.0
30/06/2023,01:50:27,0.000,0.0,0.0,0.0
30/06/2023,01:51:24,0.001,0.0,0.0,0.0
30/06/2023,01:52:22,0.000,0.0,0.0,0.0
30/06/2023,01:53:22,0.000,0.0,0.0,0.0
30/06/2023,01:54:23,0.002,0.0,0.0,0.0
30/06/2023,01:55:22,0.001,0.0,0.0,0.0
30/06/2023,01:56:23,0.001,0.0,0.0,0.0
30/06/2023,01:57:23,0.001,0.0,0.0,0.0
30/06/2023,01:58:22,0.002,0.0,0.0,0.0
30/06/2023,01:59:23,0.001,0.0,0.0,0.0
30/06/2023,02:00:22,0.000,0.0,0.0,0.0
30/06/2023,02:01:23,0.001,0.0,0.0,0.0
30/06/2023,02:02:23,0.001,0.0,0.0,0.0
30/06/2023,02:03:23,0.000,0.0,0.0,0.0
30/06/2023,02:04:23,0.002,0.0,0.0,0.0
30/06/2023,02:05:23,0.000,0.0,0.0,0.0
30/06/2023,02:06:22,-0.000,0.0,0.0,0.0
30/06/2023,02:07:23,0.000,0.0,0.0,0.0
30/06/2023,02:08:22,0.002,0.0,0.0,0.0
30/06/2023,02:09:23,0.000,0.0,0.0,0.0
30/06/2023,02:10:23,0.002,0.0,0.0,0.0
30/06/2023,02:11:23,0.001,0.0,0.0,0.0
30/06/2023,02:12:22,0.000,0.0,0.0,0.0
30/06/2023,02:13:23,0.001,0.0,0.0,0.0
30/06/2023,02:14:22,0.001,0.0,0.0,0.0
30/06/2023,02:15:23,0.001,0.0,0.0,0.0
30/06/2023,02:16:23,0.001,0.0,0.0,0.0
30/06/2023,02:17:22,0.001,0.0,0.0,0.0
30/06/2023,02:18:21,0.000,0.0,0.0,0.0
30/06/2023,02:19:23,0.001,0.0,0.0,0.0
30/06/2023,02:20:22,0.001,0.0,0.0,0.0
30/06/2023,02:21:23,0.001,0.0,0.0,0.0
30/06/2023,02:22:23,0.001,0.0,0.0,0.0
30/06/2023,02:23:22,0.001,0.0,0.0,0.0
30/06/2023,02:24:23,0.001,0.0,0.0,0.0
30/06/2023,02:25:22,0.001,0.0,0.0,0.0
30/06/2023,02:26:23,0.001,0.0,0.0,0.0
30/06/2023,02:27:23,0.001,0.0,0.0,0.0
30/06/2023,02:28:23,0.002,0.0,0.0,0.0
30/06/2023,02:29:22,0.001,0.0,0.0,0.0
30/06/2023,02:30:23,0.001,0.0,0.0,0.0
30/06/2023,02:31:22,0.001,0.0,0.0,0.0
30/06/2023,02:32:23,0.000,0.0,0.0,0.0
30/06/2023,02:33:22,0.002,0.0,0.0,0.0
30/06/2023,02:34:23,0.001,0.0,0.0,0.0
30/06/2023,02:35:23,0.000,0.0,0.0,0.0
30/06/2023,02:36:23,0.001,0.0,0.0,0.0
30/06/2023,02:37:22,0.001,0.0,0.0,0.0
30/06/2023,02:38:22,0.001,0.0,0.0,0.0
30/06/2023,02:39:23,0.001,0.0,0.0,0.0
30/06/2023,02:40:22,0.001,0.0,0.0,0.0
30/06/2023,02:41:23,0.001,0.0,0.0,0.0
30/06/2023,02:42:23,0.001,0.0,0.0,0.0
30/06/2023,02:43:23,0.000,0.0,0.0,0.0
30/06/2023,02:44:24,0.001,0.0,0.0,0.0
30/06/2023,02:45:23,0.002,0.0,0.0,0.0
30/06/2023,02:46:23,0.001,0.0,0.0,0.0
30/06/2023,02:47:24,0.002,0.0,0.0,0.0
30/06/2023,02:48:23,0.001,0.0,0.0,0.0
30/06/2023,02:49:23,0.001,0.0,0.0,0.0
30/06/2023,02:50:22,0.002,0.0,0.0,0.0
30/06/2023,02:51:23,0.001,0.0,0.0,0.0
30/06/2023,02:52:23,0.001,0.0,0.0,0.0
30/06/2023,02:53:23,0.001,0.0,0.0,0.0
30/06/2023,02:54:22,0.000,0.0,0.0,0.0
30/06/2023,02:55:23,0.002,0.0,0.0,0.0
30/06/2023,02:56:23,0.001,0.0,0.0,0.0
30/06/2023,02:57:22,0.002,0.0,0.0,0.0
30/06/2023,02:58:23,0.001,0.0,0.0,0.0
30/06/2023,02:59:22,0.001,0.0,0.0,0.0
30/06/2023,03:00:23,0.001,0.0,0.0,0.0
30/06/2023,03:01:23,0.001,0.0,0.0,0.0
30/06/2023,03:02:23,0.001,0.0,0.0,0.0
30/06/2023,03:03:23,0.001,0.0,0.0,0.0
30/06/2023,03:04:23,0.000,0.0,0.0,0.0
30/06/2023,03:05:22,0.002,0.0,0.0,0.0
30/06/2023,03:06:23,0.001,0.0,0.0,0.0
30/06/2023,03:07:23,0.002,0.0,0.0,0.0
30/06/2023,03:08:23,0.001,0.0,0.0,0.0
30/06/2023,03:09:22,0.000,0.0,0.0,0.0
30/06/2023,03:10:23,0.001,0.0,0.0,0.0
30/06/2023,03:11:23,0.001,0.0,0.0,0.0
30/06/2023,03:12:22,0.001,0.0,0.0,0.0
30/06/2023,03:13:22,0.001,0.0,0.0,0.0
30/06/2023,03:14:23,0.001,0.0,0.0,0.0
30/06/2023,03:15:23,0.001,0.0,0.0,0.0
30/06/2023,03:16:23,0.001,0.0,0.0,0.0
30/06/2023,03:17:23,0.001,0.0,0.0,0.0
30/06/2023,03:18:23,0.002,0.0,0.0,0.0
30/06/2023,03:19:23,0.001,0.0,0.0,0.0
30/06/2023,03:20:23,0.001,0.0,0.0,0.0
30/06/2023,03:21:23,0.001,0.0,0.0,0.0
30/06/2023,03:22:23,0.001,0.0,0.0,0.0
30/06/2023,03:23:23,0.001,0.0,0.0,0.0
30/06/2023,03:24:23,0.002,0.0,0.0,0.0
30/06/2023,03:25:23,0.002,0.0,0.0,0.0
30/06/2023,03:26:22,0.002,0.0,0.0,0.0
30/06/2023,03:27:23,0.001,0.0,0.0,0.0
30/06/2023,03:28:22,0.001,0.0,0.0,0.0
30/06/2023,03:29:23,0.002,0.0,0.0,0.0
30/06/2023,03:30:23,0.002,0.0,0.0,0.0
30/06/2023,03:31:23,0.001,0.0,0.0,0.0
30/06/2023,03:32:23,0.001,0.0,0.0,0.0
30/06/2023,03:33:23,0.003,0.0,0.0,0.0
30/06/2023,03:34:23,0.002,0.0,0.0,0.0
30/06/2023,03:35:23,0.003,0.0,0.0,0.0
30/06/2023,03:36:23,0.002,0.0,0.0,0.0
30/06/2023,03:37:23,0.002,0.0,0.0,0.0
30/06/2023,03:38:23,0.002,0.0,0.0,0.0
30/06/2023,03:39:23,0.002,0.0,0.0,0.0
30/06/2023,03:40:23,0.002,0.0,0.0,0.0
30/06/2023,03:41:23,0.002,0.0,0.0,0.0
30/06/2023,03:42:23,0.003,0.0,0.0,0.0
30/06/2023,03:43:23,0.003,0.0,0.0,0.0
30/06/2023,03:44:22,0.003,0.0,0.0,0.0
30/06/2023,03:45:23,0.002,0.0,0.0,0.0
30/06/2023,03:46:23,0.002,0.0,0.0,0.0
30/06/2023,03:47:23,0.003,0.0,0.0,0.0
30/06/2023,03:48:22,0.003,0.0,0.0,0.0
30/06/2023,03:49:23,0.003,0.0,0.0,0.0
30/06/2023,03:50:23,0.002,0.0,0.0,0.0
30/06/2023,03:51:23,0.003,0.0,0.0,0.0
30/06/2023,03:52:23,0.003,0.0,0.0,0.0
30/06/2023,03:53:23,0.004,0.0,0.0,0.0
30/06/2023,03:54:22,0.003,0.0,0.0,0.0
30/06/2023,03:55:23,0.004,0.0,0.0,0.0
30/06/2023,03:56:22,0.004,0.0,0.0,0.0
30/06/2023,03:57:23,0.003,0.0,0.0,0.0
30/06/2023,03:58:23,0.004,0.0,0.0,0.0
30/06/2023,03:59:23,0.003,0.0,0.0,0.0
30/06/2023,04:00:23,0.005,0.0,0.0,0.0
30/06/2023,04:01:24,0.004,0.0,0.0,0.0
30/06/2023,04:02:24,0.005,0.0,0.0,0.0
30/06/2023,04:03:23,0.005,0.0,0.0,0.0
30/06/2023,04:04:22,0.005,0.0,0.0,0.0
30/06/2023,04:05:23,0.006,0.0,0.0,0.0
30/06/2023,04:06:22,0.005,0.0,0.0,0.0
30/06/2023,04:07:23,0.005,0.0,0.0,0.0
30/06/2023,04:08:23,0.005,0.0,0.0,0.0
30/06/2023,04:09:23,0.006,0.0,0.0,0.0
30/06/2023,04:10:23,0.007,0.0,0.0,0.0
30/06/2023,04:11:23,0.005,0.0,0.0,0.0
30/06/2023,04:12:23,0.006,0.0,0.0,0.0
30/06/2023,04:13:23,0.006,0.0,0.0,0.0
30/06/2023,04:14:23,0.007,0.0,0.0,0.0
30/06/2023,04:15:23,0.006,0.0,0.0,0.0
30/06/2023,04:16:23,0.006,0.0,0.0,0.0
30/06/2023,04:17:23,0.007,0.0,0.0,0.0
30/06/2023,04:18:23,0.006,0.0,0.001,0.001
30/06/2023,04:19:23,0.007,0.0,0.001,0.0
30/06/2023,04:20:22,0.007,0.0,0.001,0.0
30/06/2023,04:21:23,0.007,0.0,0.001,0.0
30/06/2023,04:22:23,0.008,0.0,0.001,0.0
30/06/2023,04:23:23,0.008,0.0,0.001,0.0
30/06/2023,04:24:23,0.009,0.0,0.001,0.0
30/06/2023,04:25:23,0.008,0.0,0.001,0.0
30/06/2023,04:26:23,0.008,0.0,0.002,0.001
30/06/2023,04:27:23,0.009,0.0,0.002,0.0
30/06/2023,04:28:23,0.008,0.0,0.002,0.0
30/06/2023,04:29:23,0.009,0.0,0.002,0.0
30/06/2023,04:30:24,0.011,0.0,0.002,0.0
30/06/2023,04:31:23,0.010,0.0,0.002,0.0
30/06/2023,04:32:23,0.012,0.0,0.002,0.0
30/06/2023,04:33:23,0.011,0.0,0.003,0.001
30/06/2023,04:34:23,0.012,0.0,0.003,0.0
30/06/2023,04:35:23,0.012,0.0,0.003,0.0
30/06/2023,04:36:23,0.012,0.0,0.003,0.0
30/06/2023,04:37:23,0.012,0.0,0.003,0.0
30/06/2023,04:38:23,0.012,0.0,0.004,0.001
30/06/2023,04:39:23,0.013,0.0,0.004,0.0
30/06/2023,04:40:23,0.013,0.0,0.004,0.0
30/06/2023,04:41:23,0.014,0.0,0.004,0.0
30/06/2023,04:42:23,0.014,0.0,0.005,0.001
30/06/2023,04:43:23,0.014,0.0,0.005,0.0
30/06/2023,04:44:23,0.015,0.0,0.005,0.0
30/06/2023,04:45:23,0.016,0.0,0.005,0.0
30/06/2023,04:46:23,0.015,0.0,0.005,0.0
30/06/2023,04:47:23,0.015,0.0,0.006,0.001
30/06/2023,04:48:23,0.016,0.0,0.006,0.0
30/06/2023,04:49:23,0.016,0.0,0.006,0.0
30/06/2023,04:50:23,0.017,0.0,0.007,0.001
30/06/2023,04:51:23,0.017,0.0,0.007,0.0
30/06/2023,04:52:23,0.018,0.0,0.007,0.0
30/06/2023,04:53:23,0.019,0.0,0.007,0.0
30/06/2023,04:54:23,0.020,0.0,0.008,0.001
30/06/2023,04:55:23,0.020,0.0,0.008,0.0
30/06/2023,04:56:23,0.021,0.0,0.008,0.0
30/06/2023,04:57:23,0.020,0.0,0.009,0.001
30/06/2023,04:58:24,0.022,0.0,0.009,0.0
30/06/2023,04:59:23,0.023,0.0,0.01,0.001
30/06/2023,05:00:23,0.023,0.0,0.01,0.0
30/06/2023,05:01:23,0.024,0.0,0.01,0.0
30/06/2023,05:02:23,0.024,0.0,0.011,0.001
30/06/2023,05:03:23,0.026,0.0,0.011,0.0
30/06/2023,05:04:23,0.026,0.0,0.012,0.001
30/06/2023,05:05:23,0.027,0.0,0.012,0.0
30/06/2023,05:06:23,0.027,0.0,0.012,0.0
30/06/2023,05:07:23,0.028,0.0,0.013,0.001
30/06/2023,05:08:23,0.029,0.0,0.013,0.0
30/06/2023,05:09:23,0.030,0.0,0.014,0.001
30/06/2023,05:10:23,0.030,0.0,0.014,0.0
30/06/2023,05:11:23,0.031,0.0,0.015,0.001
30/06/2023,05:12:23,0.030,0.0,0.015,0.0
30/06/2023,05:13:23,0.032,0.0,0.016,0.001
30/06/2023,05:14:23,0.032,0.0,0.016,0.0
30/06/2023,05:15:23,0.032,0.0,0.017,0.001
30/06/2023,05:16:23,0.032,0.0,0.018,0.001
30/06/2023,05:17:23,0.033,0.0,0.018,0.0
30/06/2023,05:18:23,0.033,0.0,0.019,0.001
30/06/2023,05:19:23,0.034,0.0,0.019,0.0
30/06/2023,05:20:23,0.033,0.0,0.02,0.001
30/06/2023,05:21:23,0.034,0.0,0.02,0.0
30/06/2023,05:22:23,0.034,0.0,0.021,0.001
30/06/2023,05:23:23,0.034,0.0,0.021,0.0
30/06/2023,05:24:23,0.035,0.0,0.022,0.001
30/06/2023,05:25:23,0.034,0.0,0.023,0.001
30/06/2023,05:26:23,0.036,0.0,0.023,0.0
30/06/2023,05:27:23,0.035,0.0,0.024,0.001
30/06/2023,05:28:23,0.036,0.0,0.024,0.0
30/06/2023,05:29:23,0.036,0.0,0.025,0.001
30/06/2023,05:30:23,0.037,0.0,0.026,0.001
30/06/2023,05:31:23,0.037,0.0,0.026,0.0
30/06/2023,05:32:23,0.038,0.0,0.027,0.001
30/06/2023,05:33:23,0.038,0.0,0.027,0.0
30/06/2023,05:34:24,0.040,0.0,0.028,0.001
30/06/2023,05:35:23,0.042,0.0,0.029,0.001
30/06/2023,05:36:24,0.043,0.0,0.03,0.001
30/06/2023,05:37:23,0.045,0.0,0.03,0.0
30/06/2023,05:38:23,0.046,0.0,0.031,0.001
30/06/2023,05:39:23,0.049,0.0,0.032,0.001
30/06/2023,05:40:23,0.049,0.0,0.033,0.001
30/06/2023,05:41:23,0.052,0.0,0.033,0.0
30/06/2023,05:42:23,0.053,0.0,0.034,0.001
30/06/2023,05:43:23,0.055,0.0,0.035,0.001
30/06/2023,05:44:23,0.057,0.0,0.036,0.001
30/06/2023,05:45:23,0.059,0.0,0.037,0.001
30/06/2023,05:46:23,0.061,0.0,0.038,0.001
30/06/2023,05:47:23,0.063,0.0,0.039,0.001
30/06/2023,05:48:23,0.065,0.0,0.04,0.001
30/06/2023,05:49:23,0.068,0.0,0.041,0.001
30/06/2023,05:50:23,0.071,0.0,0.042,0.001
30/06/2023,05:51:24,0.075,0.0,0.044,0.002
30/06/2023,05:52:23,0.076,0.0,0.045,0.001
30/06/2023,05:53:23,0.079,0.0,0.046,0.001
30/06/2023,05:54:23,0.083,0.0,0.048,0.002
30/06/2023,05:55:23,0.085,0.0,0.049,0.001
30/06/2023,05:56:23,0.088,0.0,0.05,0.001
30/06/2023,05:57:23,0.090,0.0,0.052,0.002
30/06/2023,05:58:23,0.092,0.0,0.053,0.001
30/06/2023,05:59:23,0.094,0.0,0.055,0.002
30/06/2023,06:00:23,0.097,0.0,0.057,0.002
30/06/2023,06:01:23,0.099,0.0,0.058,0.001
30/06/2023,06:02:23,0.101,0.0,0.06,0.002
30/06/2023,06:03:23,0.103,0.0,0.062,0.002
30/06/2023,06:04:24,0.105,0.0,0.063,0.001
30/06/2023,06:05:23,0.106,0.0,0.065,0.002
30/06/2023,06:06:23,0.107,0.0,0.067,0.002
30/06/2023,06:07:23,0.109,0.0,0.069,0.002
30/06/2023,06:08:23,0.109,0.0,0.07,0.001
30/06/2023,06:09:23,0.113,0.0,0.072,0.002
30/06/2023,06:10:23,0.115,0.0,0.074,0.002
30/06/2023,06:11:23,0.119,0.0,0.076,0.002
30/06/2023,06:12:23,0.122,0.0,0.078,0.002
30/06/2023,06:13:23,0.127,0.0,0.08,0.002
30/06/2023,06:14:23,0.130,0.0,0.082,0.002
30/06/2023,06:15:23,0.134,0.0,0.085,0.003
30/06/2023,06:16:23,0.139,0.0,0.087,0.002
30/06/2023,06:17:23,0.143,0.0,0.089,0.002
30/06/2023,06:18:23,0.148,0.0,0.092,0.003
30/06/2023,06:19:23,0.152,0.0,0.094,0.002
30/06/2023,06:20:23,0.154,0.0,0.097,0.003
30/06/2023,06:21:23,0.156,0.0,0.099,0.002
30/06/2023,06:22:23,0.161,0.0,0.102,0.003
30/06/2023,06:23:23,0.164,0.0,0.105,0.003
30/06/2023,06:24:23,0.168,0.0,0.107,0.002
30/06/2023,06:25:23,0.170,0.0,0.11,0.003
30/06/2023,06:26:24,0.175,0.0,0.113,0.003
30/06/2023,06:27:24,0.180,0.0,0.116,0.003
30/06/2023,06:28:23,0.182,0.0,0.119,0.003
30/06/2023,06:29:24,0.188,0.0,0.122,0.003
30/06/2023,06:30:23,0.195,0.0,0.125,0.003
30/06/2023,06:31:23,0.200,0.0,0.129,0.004
30/06/2023,06:32:23,0.206,0.0,0.132,0.003
30/06/2023,06:33:24,0.211,0.0,0.136,0.004
30/06/2023,06:34:23,0.216,0.0,0.139,0.003
30/06/2023,06:35:23,0.221,1.0,0.143,0.004
30/06/2023,06:36:23,0.226,1.0,0.146,0.003
30/06/2023,06:37:23,0.230,1.0,0.15,0.004
30/06/2023,06:38:23,0.233,1.0,0.154,0.004
30/06/2023,06:39:24,0.234,1.0,0.158,0.004
30/06/2023,06:40:23,0.236,1.0,0.162,0.004
30/06/2023,06:41:23,0.238,1.0,0.166,0.004
30/06/2023,06:42:23,0.241,1.0,0.17,0.004
30/06/2023,06:43:23,0.243,1.0,0.174,0.004
30/06/2023,06:44:23,0.245,1.0,0.178,0.004
30/06/2023,06:45:23,0.242,1.0,0.182,0.004
30/06/2023,06:46:23,0.240,1.0,0.186,0.004
30/06/2023,06:47:24,0.238,1.0,0.19,0.004
30/06/2023,06:48:23,0.237,1.0,0.194,0.004
30/06/2023,06:49:24,0.236,1.0,0.198,0.004
30/06/2023,06:50:23,0.235,1.0,0.202,0.004
30/06/2023,06:51:23,0.234,1.0,0.206,0.004
30/06/2023,06:52:23,0.233,1.0,0.21,0.004
30/06/2023,06:53:24,0.234,1.0,0.214,0.004
30/06/2023,06:54:23,0.234,1.0,0.217,0.003
30/06/2023,06:55:23,0.234,1.0,0.221,0.004
30/06/2023,06:56:23,0.233,1.0,0.225,0.004
30/06/2023,06:57:24,0.232,1.0,0.229,0.004
30/06/2023,06:58:23,0.230,1.0,0.233,0.004
30/06/2023,06:59:24,0.230,1.0,0.237,0.004
30/06/2023,07:00:23,0.232,1.0,0.241,0.004
30/06/2023,07:01:23,0.232,1.0,0.245,0.004
30/06/2023,07:02:24,0.236,1.0,0.248,0.003
30/06/2023,07:03:22,0.239,1.0,0.252,0.004
30/06/2023,07:04:23,0.245,1.0,0.256,0.004
30/06/2023,07:05:23,0.250,1.0,0.261,0.005
30/06/2023,07:06:24,0.254,1.0,0.265,0.004
30/06/2023,07:07:23,0.257,1.0,0.269,0.004
30/06/2023,07:08:23,0.261,1.0,0.273,0.004
30/06/2023,07:09:24,0.266,1.0,0.278,0.005
30/06/2023,07:10:23,0.269,1.0,0.282,0.004
30/06/2023,07:11:23,0.271,1.0,0.287,0.005
30/06/2023,07:12:23,0.274,1.0,0.291,0.004
30/06/2023,07:13:24,0.276,1.0,0.296,0.005
30/06/2023,07:14:23,0.279,1.0,0.3,0.004
30/06/2023,07:15:24,0.280,1.0,0.305,0.005
30/06/2023,07:16:23,0.280,1.0,0.31,0.005
30/06/2023,07:17:23,0.279,1.0,0.314,0.004
30/06/2023,07:18:23,0.278,1.0,0.319,0.005
30/06/2023,07:19:23,0.275,1.0,0.324,0.005
30/06/2023,07:20:23,0.275,1.0,0.328,0.004
30/06/2023,07:21:24,0.273,1.0,0.333,0.005
30/06/2023,07:22:24,0.272,1.0,0.337,0.004
30/06/2023,07:23:23,0.273,1.0,0.342,0.005
30/06/2023,07:24:23,0.271,1.0,0.346,0.004
30/06/2023,07:25:23,0.268,1.0,0.351,0.005
30/06/2023,07:26:24,0.262,1.0,0.355,0.004
30/06/2023,07:27:23,0.259,1.0,0.36,0.005
30/06/2023,07:28:24,0.256,1.0,0.364,0.004
30/06/2023,07:29:23,0.253,1.0,0.368,0.004
30/06/2023,07:30:24,0.249,1.0,0.373,0.005
30/06/2023,07:31:23,0.246,1.0,0.377,0.004
30/06/2023,07:32:24,0.241,1.0,0.381,0.004
30/06/2023,07:33:23,0.238,1.0,0.385,0.004
30/06/2023,07:34:24,0.240,1.0,0.389,0.004
30/06/2023,07:35:23,0.244,1.0,0.393,0.004
30/06/2023,07:36:23,0.249,1.0,0.397,0.004
30/06/2023,07:37:23,0.257,1.0,0.401,0.004
30/06/2023,07:38:24,0.261,1.0,0.405,0.004
30/06/2023,07:39:23,0.266,1.0,0.41,0.005
30/06/2023,07:40:24,0.268,1.0,0.414,0.004
30/06/2023,07:41:23,0.269,1.0,0.419,0.005
30/06/2023,07:42:24,0.269,1.0,0.423,0.004
30/06/2023,07:43:23,0.270,1.0,0.428,0.005
30/06/2023,07:44:23,0.272,1.0,0.432,0.004
30/06/2023,07:45:23,0.278,1.0,0.437,0.005
30/06/2023,07:46:24,0.279,1.0,0.441,0.004
30/06/2023,07:47:24,0.284,1.0,0.446,0.005
30/06/2023,07:48:23,0.286,1.0,0.451,0.005
30/06/2023,07:49:24,0.287,1.0,0.456,0.005
30/06/2023,07:50:23,0.289,1.0,0.46,0.004
30/06/2023,07:51:24,0.293,1.0,0.465,0.005
30/06/2023,07:52:23,0.298,1.0,0.47,0.005
30/06/2023,07:53:24,0.309,1.0,0.475,0.005
30/06/2023,07:54:23,0.323,1.0,0.481,0.006
30/06/2023,07:55:23,0.340,1.0,0.486,0.005
30/06/2023,07:56:23,0.357,1.0,0.492,0.006
30/06/2023,07:57:24,0.366,1.0,0.498,0.006
30/06/2023,07:58:23,0.369,1.0,0.504,0.006
30/06/2023,07:59:23,0.368,1.0,0.51,0.006
30/06/2023,08:00:23,0.373,1.0,0.516,0.006
30/06/2023,08:01:24,0.385,1.0,0.523,0.007
30/06/2023,08:02:23,0.402,1.0,0.529,0.006
30/06/2023,08:03:24,0.422,1.0,0.536,0.007
30/06/2023,08:04:23,0.439,1.0,0.543,0.007
30/06/2023,08:05:25,0.458,1.0,0.551,0.008
30/06/2023,08:06:24,0.473,1.0,0.559,0.008
30/06/2023,08:07:24,0.488,1.0,0.567,0.008
30/06/2023,08:08:23,0.509,1.0,0.575,0.008
30/06/2023,08:09:24,0.531,1.0,0.584,0.009
30/06/2023,08:10:23,0.556,1.0,0.592,0.008
30/06/2023,08:11:24,0.573,1.0,0.602,0.01
30/06/2023,08:12:23,0.583,1.0,0.611,0.009
30/06/2023,08:13:24,0.584,1.0,0.621,0.01
30/06/2023,08:14:23,0.575,1.0,0.631,0.01
30/06/2023,08:15:23,0.550,1.0,0.641,0.01
30/06/2023,08:16:24,0.524,1.0,0.649,0.008
30/06/2023,08:17:23,0.503,1.0,0.658,0.009
30/06/2023,08:18:45,0.485,1.0,0.669,0.011
30/06/2023,08:20:24,0.482,1.0,0.682,0.013
30/06/2023,08:21:23,0.482,1.0,0.69,0.008
30/06/2023,08:22:23,0.488,1.0,0.698,0.008
30/06/2023,08:23:23,0.491,1.0,0.707,0.009
30/06/2023,08:24:23,0.491,1.0,0.715,0.008
30/06/2023,08:25:23,0.491,1.0,0.723,0.008
30/06/2023,08:26:23,0.487,1.0,0.731,0.008
30/06/2023,08:27:23,0.487,1.0,0.739,0.008
30/06/2023,08:28:24,0.488,1.0,0.747,0.008
30/06/2023,08:29:22,0.490,1.0,0.755,0.008
30/06/2023,08:30:23,0.494,1.0,0.764,0.009
30/06/2023,08:31:24,0.496,1.0,0.772,0.008
30/06/2023,08:32:23,0.495,1.0,0.78,0.008
30/06/2023,08:33:24,0.497,1.0,0.789,0.009
30/06/2023,08:34:23,0.501,1.0,0.797,0.008
30/06/2023,08:35:23,0.510,1.0,0.805,0.008
30/06/2023,08:36:24,0.527,1.0,0.814,0.009
30/06/2023,08:37:24,0.544,1.0,0.823,0.009
30/06/2023,08:38:23,0.567,1.0,0.832,0.009
30/06/2023,08:39:24,0.588,1.0,0.842,0.01
30/06/2023,08:40:23,0.603,1.0,0.851,0.009
30/06/2023,08:41:23,0.615,1.0,0.861,0.01
30/06/2023,08:42:22,0.632,1.0,0.872,0.011
30/06/2023,08:43:23,0.651,1.0,0.883,0.011
30/06/2023,08:44:23,0.665,2.0,0.894,0.011
30/06/2023,08:45:23,0.676,2.0,0.905,0.011
30/06/2023,08:46:24,0.697,2.0,0.917,0.012
30/06/2023,08:47:23,0.728,2.0,0.928,0.011
30/06/2023,08:48:23,0.756,2.0,0.941,0.013
30/06/2023,08:49:24,0.790,2.0,0.954,0.013
30/06/2023,08:50:23,0.816,2.0,0.967,0.013
30/06/2023,08:51:23,0.844,2.0,0.981,0.014
30/06/2023,08:52:23,0.865,2.0,0.995,0.014
30/06/2023,08:53:22,0.879,2.0,1.009,0.014
30/06/2023,08:54:23,0.896,2.0,1.025,0.016
30/06/2023,08:55:24,0.884,2.0,1.04,0.015
30/06/2023,08:56:23,0.873,2.0,1.054,0.014
30/06/2023,08:57:24,0.874,2.0,1.069,0.015
30/06/2023,08:58:23,0.918,2.0,1.085,0.016
30/06/2023,08:59:24,0.857,2.0,1.099,0.014
30/06/2023,09:00:24,0.859,2.0,1.114,0.015
30/06/2023,09:01:23,0.874,2.0,1.128,0.014
30/06/2023,09:02:23,0.886,2.0,1.142,0.014
30/06/2023,09:03:23,0.904,2.0,1.158,0.016
30/06/2023,09:04:23,0.926,2.0,1.173,0.015
30/06/2023,09:05:23,0.943,2.0,1.189,0.016
30/06/2023,09:06:24,0.936,2.0,1.204,0.015
30/06/2023,09:07:23,0.946,2.0,1.22,0.016
30/06/2023,09:08:24,0.926,2.0,1.236,0.016
30/06/2023,09:09:23,0.879,2.0,1.251,0.015
30/06/2023,09:10:24,0.828,2.0,1.265,0.014
30/06/2023,09:11:23,0.807,2.0,1.278,0.013
30/06/2023,09:12:24,0.782,2.0,1.292,0.014
30/06/2023,09:13:23,0.774,2.0,1.305,0.013
30/06/2023,09:14:23,0.779,2.0,1.317,0.012
30/06/2023,09:15:23,0.781,2.0,1.331,0.014
30/06/2023,09:16:24,0.776,2.0,1.344,0.013
30/06/2023,09:17:53,0.794,2.0,1.363,0.019
30/06/2023,09:19:24,0.808,2.0,1.383,0.02
30/06/2023,09:20:24,0.791,2.0,1.397,0.014
30/06/2023,09:21:24,0.786,2.0,1.41,0.013
30/06/2023,09:22:23,0.807,2.0,1.423,0.013
30/06/2023,09:23:23,0.848,2.0,1.437,0.014
30/06/2023,09:24:24,0.896,2.0,1.451,0.014
30/06/2023,09:25:23,0.937,2.0,1.467,0.016
30/06/2023,09:26:24,0.958,2.0,1.483,0.016
30/06/2023,09:27:24,0.933,2.0,1.498,0.015
30/06/2023,09:28:23,0.877,2.0,1.513,0.015
30/06/2023,09:29:24,0.804,2.0,1.527,0.014
30/06/2023,09:30:23,0.750,2.0,1.54,0.013
30/06/2023,09:31:23,0.718,2.0,1.553,0.013
30/06/2023,09:32:24,0.701,2.0,1.564,0.011
30/06/2023,09:33:23,0.708,2.0,1.576,0.012
30/06/2023,09:34:23,0.716,2.0,1.588,0.012
30/06/2023,09:35:25,0.728,2.0,1.6,0.012
30/06/2023,09:36:23,0.749,2.0,1.612,0.012
30/06/2023,09:37:23,0.775,2.0,1.625,0.013
30/06/2023,09:38:23,0.819,2.0,1.638,0.013
30/06/2023,09:39:24,0.872,2.0,1.652,0.014
30/06/2023,09:40:24,0.928,2.0,1.667,0.015
30/06/2023,09:41:23,0.964,2.0,1.683,0.016
30/06/2023,09:42:23,0.960,2.0,1.699,0.016
30/06/2023,09:43:24,0.913,2.0,1.715,0.016
30/06/2023,09:44:24,0.848,2.0,1.73,0.015
30/06/2023,09:45:23,0.787,2.0,1.743,0.013
30/06/2023,09:46:24,0.752,2.0,1.756,0.013
30/06/2023,09:47:23,0.733,2.0,1.768,0.012
30/06/2023,09:48:24,0.721,2.0,1.781,0.013
30/06/2023,09:49:24,0.711,2.0,1.792,0.011
30/06/2023,09:50:24,0.719,2.0,1.804,0.012
30/06/2023,09:51:23,0.769,2.0,1.817,0.013
30/06/2023,09:52:24,0.814,2.0,1.83,0.013
30/06/2023,09:53:24,0.828,2.0,1.844,0.014
30/06/2023,09:54:23,0.817,2.0,1.857,0.013
30/06/2023,09:55:24,0.838,2.0,1.871,0.014